Weather in Khosheutovo

Russia / Astrakhan Oblast     47°01′59″N   47°48′32″E
temp.,
°C
wind,
m/s
gust,
m/s
humid.,
%
clouds,
%
prec.,
mm/h
press.,
hPa
HPBL,
m
16 may, sun
sun1601:00+22ese45340 0.0 101666
04:00+21e58340 0.0 1015101
07:00+23ese512430 0.0 1015291
10:00+31se911210 0.0 10152006
13:00+34se1011153 0.0 10143459
16:00+33se1112130 0.0 10142890
19:00+29se710140 0.0 1013833
22:00+24ese511220 0.0 1013221
17 may, mon
mon1701:00+22e511250 0.0 1012210
04:00+20ese512390 0.0 1012183
07:00+23ese714370 0.0 1012395
10:00+30se913190 0.0 10131506
13:00+33se1112110 0.0 10122887
16:00+33se911113 0.0 10112787
19:00+30se7101322 0.0 1010754
22:00+25e5101853 0.0 1011163
18 may, tue
tue1801:00+23e511222 0.0 1009185
04:00+23e716310 0.0 1008295
07:00+25ese818302 0.0 1008564
10:00+32se1116150 0.0 10092006
13:00+34se1114112 0.0 10083346
16:00+33se9111384 0.0 10082656
19:00+30se6102092 0.0 1009721
22:00+26ese6122299 0.0 1009251
19 may, wed
wed1901:00+27se6122398 0.0 1008259
04:00+22wsw233799 0.0 100834
07:00+22ssw344983 0.0 1008177
10:00+27sw444150 0.0 1008795
13:00+31wsw352947 0.0 10081803
16:00+32w752923 0.0 10082032
19:00+26wnw9104389 0.5 1010964
22:00+20wnw91457100 1.7 1013348
20 may, thu
thu2001:00+19nw9145397 0.0 1014489
04:00+17nw495832 0.1 1017409
07:00+18wnw68630 0.3 1018462
10:00+22wnw66420 0.3 10181074
13:00+24wnw56340 0.0 10181785
16:00+26wnw55302 0.0 10172194
19:00+25nw3429100 0.0 10172082
22:00+22n3439100 0.0 101868